IK1WHN-5 Weather Reports


time (UTC)temp
F
wind
direction
speed
knots
gust
knots
rain 1hr
in
rain 24hr
in
rain mn
in
humidity
%
barometer
mb
20260507141602 0 111 7.8 7.8 0.00 0.00 0.00 72 1013.2
20260507141102 0 214 3.5 9.6 0.00 0.00 0.00 72 1013.0
20260507140603 0 156 2.6 9.6 0.00 0.00 0.00 74 1013.2
20260507140103 0 133 4.3 11.3 0.00 0.00 0.00 75 1012.8
20260507135603 0 154 8.7 13.9 0.00 0.00 0.00 74 1013.1
20260507135103 0 184 6.1 10.4 0.00 0.00 0.00 73 1013.2
20260507134602 0 110 7.8 9.6 0.00 0.00 0.00 73 1013.2
20260507134103 0 180 6.1 12.2 0.00 0.00 0.00 73 1013.2
20260507133604 0 159 1.7 10.4 0.00 0.00 0.00 72 1013.1
20260507133102 0 166 4.3 7.8 0.00 0.00 0.00 74 1013.1
20260507132604 0 177 11.3 14.8 0.00 0.00 0.00 74 1013.1
20260507132103 0 169 7.8 13.0 0.00 0.00 0.00 74 1013.2
20260507131604 0 142 7.0 13.0 0.00 0.00 0.00 74 1013.2
20260507131102 0 168 7.0 12.2 0.00 0.00 0.00 74 1013.3
20260507130603 0 180 5.2 8.7 0.00 0.00 0.00 75 1013.2
20260507125602 0 192 3.5 11.3 0.00 0.00 0.00 75 1013.0
20260507125102 0 132 2.6 13.9 0.00 0.00 0.00 76 1013.5
20260507124602 0 189 13.9 17.4 0.00 0.00 0.00 74 1013.1
20260507124102 0 170 16.5 16.5 0.00 0.00 0.00 73 1013.0
20260507123603 0 172 6.1 12.2 0.00 0.00 0.00 70 1013.2
20260507123102 0 148 2.6 13.0 0.00 0.00 0.00 69 1013.2
20260507122602 0 192 8.7 12.2 0.00 0.00 0.00 66 1013.0
20260507122103 0 133 5.2 5.2 0.00 0.00 0.00 68 1012.8
20260507121603 0 180 3.5 13.0 0.00 0.00 0.00 69 1013.0
20260507121103 0 127 7.0 12.2 0.00 0.00 0.00 68 1013.0
20260507120602 0 161 4.3 9.6 0.00 0.00 0.00 67 1013.0
20260507115602 0 156 4.3 7.8 0.00 0.00 0.00 71 1013.1
20260507115102 0 93 3.5 5.2 0.00 0.00 0.00 72 1013.1
20260507114603 0 192 12.2 13.0 0.00 0.00 0.00 71 1013.3
20260507114102 0 220 1.7 15.6 0.00 0.00 0.00 72 1013.3
20260507113603 0 131 5.2 12.2 0.00 0.00 0.00 70 1013.2
20260507113103 0 90 2.6 17.4 0.00 0.00 0.00 72 1013.2
20260507112603 0 138 9.6 13.9 0.00 0.00 0.00 71 1013.5
20260507112102 0 135 8.7 13.9 0.00 0.00 0.00 71 1013.2
20260507111602 0 157 5.2 15.6 0.00 0.00 0.00 69 1013.2
20260507111102 0 181 4.3 11.3 0.00 0.00 0.00 68 1013.2
20260507110602 0 165 7.8 13.9 0.00 0.00 0.00 70 1013.2
20260507105602 0 88 8.7 13.0 0.00 0.00 0.00 68 1013.2
20260507105102 0 124 6.1 7.0 0.00 0.00 0.00 67 1013.0
20260507104603 0 159 4.3 9.6 0.00 0.00 0.00 70 1013.2
20260507104103 0 117 3.5 9.6 0.00 0.00 0.00 71 1013.5
20260507103603 0 158 4.3 13.9 0.00 0.00 0.00 71 1013.3
20260507103104 0 112 7.0 10.4 0.00 0.00 0.00 72 1013.3
20260507102603 0 90 4.3 14.8 0.00 0.00 0.00 74 1013.3
20260507102102 0 98 7.0 13.9 0.00 0.00 0.00 71 1013.6
20260507101602 0 111 5.2 11.3 0.00 0.00 0.00 70 1013.5
20260507101102 0 206 0.9 8.7 0.00 0.00 0.00 71 1013.3
20260507100603 0 161 6.1 9.6 0.00 0.00 0.00 70 1013.2
20260507095602 0 146 5.2 13.0 0.00 0.00 0.00 68 1013.5
20260507095103 0 165 4.3 13.0 0.00 0.00 0.00 68 1013.3
20260507094603 0 147 4.3 8.7 0.00 0.00 0.00 67 1013.2
20260507094103 0 108 0.0 12.2 0.00 0.00 0.00 68 1013.3
20260507093603 0 181 4.3 6.1 0.00 0.00 0.00 66 1013.2
20260507093103 0 120 1.7 7.8 0.00 0.00 0.00 67 1013.2
20260507092603 0 125 5.2 13.0 0.00 0.00 0.00 67 1013.3
20260507092102 0 163 2.6 12.2 0.00 0.00 0.00 66 1013.3
20260507091602 0 144 1.7 8.7 0.00 0.00 0.00 68 1013.3
20260507091103 0 123 7.0 9.6 0.00 0.00 0.00 66 1013.3
20260507090602 0 183 1.7 7.8 0.00 0.00 0.00 70 1013.2
20260507085603 0 152 10.4 13.0 0.00 0.00 0.00 70 1013.2
20260507085103 0 134 4.3 12.2 0.00 0.00 0.00 70 1013.2
20260507084603 0 113 11.3 14.8 0.00 0.00 0.00 69 1013.1
20260507084102 0 190 3.5 8.7 0.00 0.00 0.00 68 1013.0
20260507083603 0 115 5.2 7.8 0.00 0.00 0.00 69 1013.0
20260507083102 0 118 7.8 14.8 0.00 0.00 0.00 69 1013.0
20260507082603 0 130 6.1 11.3 0.00 0.00 0.00 69 1013.0
20260507082103 0 146 6.1 11.3 0.00 0.00 0.00 72 1013.0
20260507081602 0 125 3.5 7.8 0.00 0.00 0.00 71 1012.8
20260507081102 0 180 3.5 8.7 0.00 0.00 0.00 69 1012.7
20260507080603 0 132 3.5 3.5 0.00 0.00 0.00 72 1013.2
20260507075603 0 59 0.0 3.5 0.00 0.00 0.00 74 1012.7
20260507075102 0 0 0.9 0.9 0.00 0.00 0.00 78 1012.7
20260507074603 0 105 1.7 1.7 0.00 0.00 0.00 79 1012.8
20260507074103 0 327 1.7 1.7 0.00 0.00 0.00 79 1012.8
20260507073602 0 294 0.0 0.9 0.00 0.00 0.00 79 1012.7
20260507073102 0 297 0.9 3.5 0.00 0.00 0.00 78 1012.8
20260507072602 0 350 1.7 4.3 0.00 0.00 0.00 79 1012.8
20260507072104 0 354 0.9 3.5 0.00 0.00 0.00 78 1012.8
20260507071604 0 17 1.7 4.3 0.00 0.00 0.00 75 1012.6
20260507071103 0 358 1.7 4.3 0.00 0.00 0.00 74 1012.7
20260507070602 0 0 1.7 4.3 0.00 0.00 0.00 73 1012.8
20260507065602 0 348 0.9 4.3 0.00 0.00 0.00 74 1012.7
20260507065103 0 17 1.7 3.5 0.00 0.00 0.00 77 1012.6
20260507064602 0 337 3.5 4.3 0.00 0.00 0.00 78 1012.7
20260507064103 0 0 0.0 1.7 0.00 0.00 0.00 80 1012.6
20260507063603 0 342 0.9 1.7 0.00 0.00 0.00 80 1012.7
20260507063103 0 353 1.7 6.1 0.00 0.00 0.00 80 1012.5
20260507062602 0 357 3.5 6.1 0.00 0.00 0.00 79 1012.6
20260507062102 0 323 0.9 5.2 0.00 0.00 0.00 78 1012.5
20260507061602 0 349 2.6 5.2 0.00 0.00 0.00 77 1012.2
20260507061103 0 356 0.0 4.3 0.00 0.00 0.00 77 1012.3
20260507060602 0 96 0.9 6.1 0.00 0.00 0.00 79 1012.6
20260507055603 0 7 1.7 5.2 0.00 0.00 0.00 80 1012.5
20260507055103 0 322 3.5 5.2 0.00 0.00 0.00 81 1012.2
20260507054603 0 1 3.5 8.7 0.00 0.00 0.00 81 1012.3
20260507054102 0 294 3.5 6.1 0.00 0.00 0.00 82 1012.2
20260507053604 0 356 4.3 7.0 0.00 0.00 0.00 82 1012.3
20260507053103 0 329 3.5 7.8 0.00 0.00 0.00 82 1012.2
20260507052603 0 348 4.3 5.2 0.00 0.00 0.00 83 1012.1
20260507052103 0 337 1.7 5.2 0.00 0.00 0.00 83 1012.1
20260507051603 0 0 0.9 6.1 0.00 0.00 0.00 83 1012.2
20260507051102 0 33 2.6 7.0 0.00 0.00 0.00 83 1012.2
20260507050602 0 357 1.7 3.5 0.00 0.00 0.00 84 1011.8
20260507045603 0 0 0.9 6.1 0.00 0.00 0.00 85 1011.7
20260507045102 0 325 2.6 5.2 0.00 0.00 0.00 84 1012.1
20260507044602 0 352 3.5 5.2 0.00 0.00 0.00 84 1011.7
20260507044102 0 346 0.9 5.2 0.00 0.00 0.00 85 1011.8
20260507043602 0 299 1.7 5.2 0.00 0.00 0.00 85 1011.7
20260507043105 0 351 2.6 7.0 0.00 0.00 0.00 85 1011.7
20260507042603 0 342 0.9 3.5 0.00 0.00 0.00 85 1011.7
20260507042102 0 300 0.9 5.2 0.00 0.00 0.00 85 1011.7
20260507041604 0 331 1.7 5.2 0.00 0.00 0.00 85 1011.7
20260507041103 0 3 4.3 5.2 0.00 0.00 0.00 86 1011.8
20260507040604 0 12 0.9 3.5 0.00 0.00 0.00 86 1011.7
20260507035603 0 326 3.5 5.2 0.00 0.00 0.00 86 1011.5
20260507035102 0 324 3.5 4.3 0.00 0.00 0.00 87 1011.6
20260507034602 0 23 0.0 1.7 0.00 0.00 0.00 87 1011.6
20260507034102 0 81 0.9 3.5 0.00 0.00 0.00 87 1011.5
20260507033603 0 324 2.6 2.6 0.00 0.00 0.00 87 1011.7
20260507032602 0 315 1.7 2.6 0.00 0.00 0.00 87 1011.5
20260507032103 0 328 2.6 3.5 0.00 0.00 0.00 87 1011.5
20260507031602 0 0 0.9 0.9 0.00 0.00 0.00 87 1011.7
20260507031103 0 97 1.7 1.7 0.00 0.00 0.00 87 1011.7
20260507030603 0 0 1.7 3.5 0.00 0.00 0.00 87 1011.5
20260507025603 0 355 3.5 5.2 0.00 0.00 0.00 87 1011.3
20260507025103 0 323 1.7 2.6 0.00 0.00 0.00 87 1011.6
20260507024602 0 327 1.7 4.3 0.00 0.00 0.00 87 1011.6
20260507024102 0 0 0.9 3.5 0.00 0.00 0.00 87 1011.5
20260507023602 0 318 2.6 5.2 0.00 0.00 0.00 87 1011.7
20260507023103 0 0 0.9 1.7 0.00 0.00 0.00 87 1011.6
20260507022602 0 346 0.0 0.9 0.00 0.00 0.00 87 1011.6
20260507022103 0 330 0.9 0.9 0.00 0.00 0.00 87 1011.6
20260507021603 0 311 0.0 1.7 0.00 0.00 0.00 87 1011.6
20260507021103 0 340 3.5 3.5 0.00 0.00 0.00 87 1011.5
20260507020603 0 329 3.5 3.5 0.00 0.00 0.00 87 1011.7
20260507015602 0 352 0.0 4.3 0.00 0.00 0.00 87 1011.8
20260507015103 0 324 2.6 3.5 0.00 0.00 0.00 87 1011.5
20260507014603 0 324 2.6 3.5 0.00 0.00 0.00 87 1011.5
20260507014102 0 348 1.7 3.5 0.00 0.00 0.00 87 1011.2
20260507013602 0 351 3.5 3.5 0.00 0.00 0.00 87 1011.6
20260507012603 0 54 0.9 2.6 0.00 0.00 0.00 87 1011.7
20260507012103 0 347 2.6 2.6 0.00 0.00 0.00 87 1011.5
20260507011602 0 324 2.6 3.5 0.00 0.00 0.00 87 1011.7
20260507011103 0 321 1.7 1.7 0.00 0.00 0.00 87 1011.6
20260507010603 0 304 1.7 1.7 0.00 0.00 0.00 86 1011.7
20260507005602 0 0 1.7 4.3 0.00 0.00 0.00 87 1011.7
20260507005102 0 285 2.6 3.5 0.00 0.00 0.00 87 1011.7
20260507004603 0 300 0.9 1.7 0.00 0.00 0.00 87 1012.0
20260507004104 0 334 0.9 2.6 0.00 0.00 0.00 87 1011.7
20260507003602 0 29 0.9 3.5 0.00 0.00 0.00 86 1011.5
20260507003102 0 352 0.9 2.6 0.00 0.00 0.00 86 1011.5
20260507002603 0 331 2.6 4.3 0.00 0.00 0.00 86 1011.6
20260507002103 0 343 3.5 4.3 0.00 0.00 0.00 86 1011.6
20260507001602 0 0 1.7 3.5 0.00 0.00 0.00 86 1011.6
20260507001102 0 323 2.6 3.5 0.00 0.00 0.00 86 1011.7
20260507000602 0 339 1.7 3.5 0.00 0.00 0.00 86 1011.5
20260506235602 0 15 3.5 4.3 0.00 0.00 0.00 87 1011.8
20260506235102 0 354 2.6 5.2 0.00 0.00 0.00 87 1011.7
20260506234603 0 301 1.7 4.3 0.00 0.00 0.00 87 1011.7
20260506234102 0 353 0.9 3.5 0.00 0.00 0.00 87 1011.6
20260506233602 0 0 3.5 6.1 0.00 0.00 0.00 87 1011.7
20260506233103 0 324 0.9 2.6 0.00 0.00 0.00 87 1011.8
20260506232603 0 261 0.0 0.9 0.00 0.00 0.00 87 1012.0
20260506232102 0 252 1.7 1.7 0.00 0.00 0.00 87 1011.8
20260506231603 0 319 0.0 1.7 0.00 0.00 0.00 87 1012.1
20260506231103 0 333 1.7 5.2 0.00 0.00 0.00 87 1011.8
20260506230603 0 26 1.7 5.2 0.00 0.00 0.00 87 1011.7
20260506225603 0 323 2.6 2.6 0.00 0.00 0.00 87 1011.7
20260506225103 0 355 0.9 3.5 0.00 0.00 0.00 86 1011.7
20260506224602 0 334 0.9 2.6 0.00 0.00 0.00 86 1011.6
20260506224103 0 0 2.6 4.3 0.00 0.00 0.00 86 1011.7
20260506223603 0 350 2.6 2.6 0.00 0.00 0.00 87 1011.7
20260506223103 0 32 0.0 0.9 0.00 0.00 0.00 87 1011.7
20260506222602 0 172 0.0 1.7 0.00 0.00 0.00 87 1011.7
20260506222102 0 187 0.0 0.9 0.00 0.00 0.00 87 1011.7
20260506221603 0 352 0.0 0.0 0.00 0.00 0.00 86 1011.5
20260506221102 0 270 0.0 1.7 0.00 0.00 0.00 86 1011.7
20260506220603 0 257 0.9 0.9 0.00 0.00 0.00 85 1011.8
20260506215603 0 180 1.7 1.7 0.00 0.00 0.00 85 1011.6
20260506215102 0 180 0.9 1.7 0.00 0.00 0.00 84 1011.7
20260506214602 0 23 0.0 0.9 0.00 0.00 0.00 84 1011.7
20260506214102 0 66 0.9 5.2 0.00 0.00 0.00 84 1011.7
20260506213602 0 352 1.7 1.7 0.00 0.00 0.00 84 1011.7
20260506213103 0 246 0.9 1.7 0.00 0.00 0.00 84 1011.6
20260506212602 0 243 0.0 0.9 0.00 0.00 0.00 84 1011.6
20260506212102 0 180 0.9 0.9 0.00 0.00 0.00 83 1011.6
20260506211603 0 281 0.9 1.7 0.00 0.00 0.00 83 1011.7
20260506211102 0 261 0.0 0.0 0.00 0.00 0.00 83 1011.6
20260506210603 0 103 0.9 1.7 0.00 0.00 0.00 83 1011.6
20260506205602 0 283 0.0 0.9 0.00 0.00 0.00 84 1011.3
20260506205102 0 331 0.9 1.7 0.00 0.00 0.00 84 1011.5
20260506204602 0 352 0.0 3.5 0.00 0.00 0.00 84 1011.6
20260506204103 0 19 1.7 3.5 0.00 0.00 0.00 84 1011.6
20260506203602 0 324 1.7 1.7 0.00 0.00 0.00 84 1011.3
20260506203103 0 23 0.0 1.7 0.00 0.00 0.00 84 1011.3
20260506202603 0 0 0.0 0.0 0.00 0.00 0.00 85 1011.5
20260506202103 0 311 0.9 1.7 0.00 0.00 0.00 85 1011.5
20260506201603 0 225 0.9 1.7 0.00 0.00 0.00 85 1011.2
20260506201102 0 188 0.0 0.0 0.00 0.00 0.00 85 1011.2
20260506200602 0 353 0.0 0.0 0.00 0.00 0.00 84 1011.2
20260506195603 0 187 0.0 0.9 0.00 0.00 0.00 84 1011.1
20260506195102 0 348 0.9 1.7 0.00 0.00 0.00 85 1011.0
20260506194602 0 270 0.0 1.7 0.00 0.00 0.00 85 1011.0
20260506194102 0 320 0.0 1.7 0.00 0.00 0.00 85 1010.8
20260506193603 0 311 0.9 1.7 0.00 0.00 0.00 85 1010.7
20260506193103 0 279 0.0 0.9 0.00 0.00 0.00 85 1010.7
20260506192602 0 180 0.0 0.0 0.00 0.00 0.00 84 1010.6
20260506192102 0 261 0.0 0.0 0.00 0.00 0.00 83 1010.3
20260506191602 0 270 0.0 0.9 0.00 0.00 0.00 83 1010.5
20260506191102 0 99 0.0 1.7 0.00 0.00 0.00 81 1010.5
20260506190603 0 120 0.9 1.7 0.00 0.00 0.00 81 1010.2
20260506185602 0 180 0.9 0.9 0.00 0.00 0.00 81 1010.2
20260506185103 0 180 1.7 3.5 0.00 0.00 0.00 81 1010.1
20260506184602 0 102 0.9 1.7 0.00 0.00 0.00 81 1010.1
20260506184103 0 177 1.7 2.6 0.00 0.00 0.00 81 1009.8
20260506183603 0 180 0.9 1.7 0.00 0.00 0.00 80 1010.1
20260506183102 0 180 0.0 0.9 0.00 0.00 0.00 80 1010.0
20260506182602 0 180 0.0 1.7 0.00 0.00 0.00 79 1010.0
20260506182103 0 159 1.7 2.6 0.00 0.00 0.00 79 1009.8
20260506181603 0 110 2.6 5.2 0.00 0.00 0.00 79 1009.7
20260506181102 0 148 0.9 4.3 0.00 0.00 0.00 79 1009.7
20260506180602 0 168 1.7 3.5 0.00 0.00 0.00 79 1009.7
20260506180103 0 192 1.7 4.3 0.00 0.00 0.00 79 1009.8
20260506175603 0 184 5.2 5.2 0.00 0.00 0.00 78 1009.6
20260506175103 0 172 4.3 5.2 0.00 0.00 0.00 78 1009.7
20260506174602 0 164 4.3 8.7 0.00 0.00 0.00 78 1009.6
20260506174104 0 170 3.5 8.7 0.00 0.00 0.00 77 1009.6
20260506173603 0 127 3.5 7.0 0.00 0.00 0.00 76 1009.3
20260506173103 0 118 6.1 7.8 0.00 0.00 0.00 76 1009.5
20260506172603 0 133 4.3 10.4 0.00 0.00 0.00 76 1009.5
20260506172102 0 172 5.2 7.0 0.00 0.00 0.00 77 1009.3
20260506171602 0 105 2.6 5.2 0.00 0.00 0.00 77 1009.2
20260506171102 0 155 4.3 4.3 0.00 0.00 0.00 77 1009.5
20260506170603 0 149 2.6 4.3 0.00 0.00 0.00 77 1009.3
20260506170103 0 191 1.7 6.1 0.00 0.00 0.00 76 1009.2
20260506165603 0 179 4.3 7.8 0.00 0.00 0.00 76 1009.2
20260506165102 0 153 3.5 6.1 0.00 0.00 0.00 77 1009.2
20260506164603 0 122 1.7 8.7 0.00 0.00 0.00 77 1009.3
20260506164102 0 142 5.2 7.0 0.00 0.00 0.00 77 1009.2
20260506163603 0 123 2.6 9.6 0.00 0.00 0.00 78 1009.2
20260506163102 0 159 9.6 10.4 0.00 0.00 0.00 76 1009.2
20260506162603 0 160 7.0 9.6 0.00 0.00 0.00 76 1009.2
20260506162103 0 176 4.3 11.3 0.00 0.00 0.00 77 1009.2
20260506161602 0 220 4.3 9.6 0.00 0.00 0.00 78 1009.2
20260506161102 0 180 7.8 10.4 0.00 0.00 0.00 79 1009.2
20260506160602 0 147 5.2 10.4 0.00 0.00 0.00 79 1009.2
20260506155602 0 175 3.5 6.1 0.00 0.00 0.00 77 1009.1
20260506155102 0 125 4.3 8.7 0.00 0.00 0.00 78 1009.0
20260506154603 0 170 2.6 7.8 0.00 0.00 0.00 78 1009.0
20260506154103 0 158 2.6 7.0 0.00 0.00 0.00 79 1009.3
20260506153603 0 142 1.7 3.5 0.00 0.00 0.00 80 1009.1
20260506153104 0 203 4.3 8.7 0.00 0.00 0.00 79 1009.2
20260506152602 0 129 3.5 7.8 0.00 0.00 0.00 78 1009.2
20260506152103 0 197 3.5 5.2 0.00 0.00 0.00 77 1009.0
20260506151602 0 165 1.7 5.2 0.00 0.00 0.00 76 1009.0
20260506151103 0 135 3.5 7.0 0.00 0.00 0.00 74 1009.0
20260506150602 0 165 6.1 10.4 0.00 0.00 0.00 74 1009.1
20260506145602 0 131 6.1 12.2 0.00 0.00 0.00 74 1009.0
20260506145103 0 135 7.8 12.2 0.00 0.00 0.00 76 1009.0
20260506144602 0 129 7.8 7.8 0.00 0.00 0.00 74 1008.7
20260506144103 0 109 5.2 9.6 0.00 0.00 0.00 73 1008.8
20260506143605 0 116 1.7 9.6 0.00 0.00 0.00 74 1008.7
20260506143102 0 199 1.7 3.5 0.00 0.00 0.00 74 1009.0
20260506142603 0 125 1.7 8.7 0.00 0.00 0.00 76 1009.0
20260506142102 0 124 3.5 9.6 0.00 0.00 0.00 76 1008.7